Date,TemperatureHighF,TemperatureAvgF,TemperatureLowF,DewpointHighF,DewpointAvgF,DewpointLowF,HumidityHigh,HumidityAvg,HumidityLow,PressureMaxIn,PressureMinIn,WindSpeedMaxMPH,WindSpeedAvgMPH,GustSpeedMaxMPH,PrecipitationSumIn
2013-1-1,79.0,69.5,62.1,72.1,66.0,60.9,98,89,76,30.10,29.96,13,2,13,0.01
2013-1-2,77.8,69.1,61.4,69.7,65.3,60.3,98,88,73,30.06,29.95,10,2,10,0.00
2013-1-3,80.2,70.7,63.3,70.7,65.9,62.4,98,86,67,30.06,29.95,11,2,12,0.07
2013-1-4,77.5,70.0,65.2,71.6,67.3,63.6,97,91,79,30.14,30.03,13,2,13,0.54
2013-1-5,78.5,69.5,66.1,71.7,66.5,63.4,97,90,78,30.17,30.05,30,2,31,0.52
2013-1-6,76.5,68.6,64.0,71.9,66.5,63.1,98,93,80,30.17,30.05,19,2,19,0.77
2013-1-7,79.1,70.5,65.7,69.9,66.1,63.3,98,87,71,30.08,29.96,14,2,14,0.34
2013-1-8,77.5,69.3,64.8,71.2,66.2,61.6,98,90,76,30.01,29.89,13,2,13,0.88
2013-1-9,77.2,69.7,66.4,72.4,67.6,65.5,99,93,81,30.01,29.89,15,3,15,0.67
2013-1-10,78.2,69.4,65.4,71.8,66.5,64.2,97,91,75,30.02,29.90,10,2,18,0.52
2013-1-11,79.0,69.8,64.3,71.9,66.7,63.4,98,90,75,29.94,29.83,15,3,17,0.22
2013-1-12,80.0,70.9,63.4,73.3,68.0,62.8,100,91,73,29.98,29.86,15,2,18,2.29
2013-1-13,80.3,71.6,64.3,73.1,68.6,63.7,100,91,72,29.98,29.87,13,2,13,0.02
2013-1-14,81.0,73.5,66.5,73.3,70.2,65.3,98,90,74,29.98,29.83,17,3,17,0.18
2013-1-15,78.2,70.0,63.5,72.9,68.1,62.0,98,94,81,29.92,29.84,10,1,10,0.10
2013-1-16,77.5,70.0,66.8,71.7,68.2,65.9,99,94,81,29.93,29.81,12,2,13,0.16
2013-1-17,78.9,69.4,62.5,69.7,65.2,61.6,98,87,68,29.90,29.78,8,2,9,0.01
2013-1-18,78.8,69.3,60.1,69.7,64.4,58.7,97,85,71,29.91,29.80,15,2,15,0.01
2013-1-19,78.0,69.4,60.0,65.4,61.6,58.1,97,78,58,29.98,29.85,20,4,21,0.01
2013-1-20,77.3,70.3,62.7,64.9,60.7,58.2,87,72,59,30.03,29.93,23,5,23,0.00
2013-1-21,79.2,69.7,62.1,65.8,62.1,57.9,87,77,59,30.11,30.00,18,4,18,0.00
2013-1-22,79.3,69.9,62.3,68.5,63.3,59.3,93,80,65,30.11,30.00,17,3,19,0.02
2013-1-23,76.7,68.4,62.8,71.1,65.4,61.7,98,90,77,30.09,29.98,14,2,14,0.28
2013-1-24,79.6,69.6,65.3,67.9,65.3,62.8,98,87,60,30.09,30.01,17,3,17,0.85
2013-1-25,79.3,69.6,63.2,67.9,64.9,61.7,98,86,59,30.10,29.98,17,3,17,0.15
2013-1-26,79.5,68.9,59.9,68.7,64.5,58.9,99,87,61,30.05,29.95,17,3,18,0.01
2013-1-27,79.0,69.5,60.7,69.9,65.0,59.3,97,87,62,30.01,29.89,19,3,19,0.16
2013-1-28,79.4,69.3,59.4,70.0,64.3,58.4,99,85,58,29.98,29.85,17,3,17,0.02
2013-1-29,77.4,69.8,65.0,70.8,67.2,63.8,98,92,75,30.02,29.89,14,2,14,0.16
2013-1-30,78.9,71.0,65.9,71.5,67.8,64.6,98,90,75,30.04,29.95,15,2,15,0.03
2013-1-31,77.3,70.5,66.6,71.7,68.2,65.9,98,93,80,30.07,29.98,9,1,10,0.13
2013-2-1,77.6,71.2,66.2,70.9,66.7,62.5,97,86,74,30.11,30.01,17,4,18,0.41
2013-2-2,77.9,69.4,62.7,65.0,61.2,58.9,91,76,57,30.16,30.05,15,3,15,0.00
2013-2-3,78.7,70.4,64.7,65.0,60.9,58.5,83,72,58,30.15,30.03,18,4,18,0.00
2013-2-4,78.3,70.5,64.2,67.0,64.2,61.1,97,81,60,30.11,30.00,18,4,18,0.05
2013-2-5,78.3,70.8,65.4,68.0,64.6,62.7,96,82,64,30.07,29.98,16,4,16,0.17
2013-2-6,77.1,69.5,64.5,72.8,67.3,63.6,98,93,80,30.06,29.97,13,8,13,1.42
2013-2-7,77.6,71.0,67.1,72.3,67.8,66.4,99,90,76,30.10,30.01,15,5,15,0.85
2013-2-8,80.2,72.1,66.6,71.7,67.4,64.8,96,85,71,30.12,30.01,14,3,14,0.06
2013-2-9,79.3,70.3,61.6,72.2,66.5,60.8,99,88,73,30.13,30.02,15,3,15,0.01
2013-2-10,80.2,72.0,66.2,71.4,67.0,64.1,95,84,70,30.17,30.08,16,3,16,0.01
2013-2-11,80.1,71.0,64.3,69.6,65.5,63.1,96,83,65,30.19,30.08,16,3,16,0.05
2013-2-12,78.0,70.5,65.3,66.3,63.4,60.4,94,79,60,30.16,30.05,16,4,17,0.02
2013-2-13,78.2,70.5,64.0,62.3,59.6,55.3,88,69,53,30.11,30.00,13,3,13,0.00
2013-2-14,78.8,68.3,60.2,66.8,61.6,58.5,96,80,60,30.08,29.97,14,3,14,0.10
2013-2-15,74.8,66.7,60.6,69.7,63.3,57.1,97,89,73,30.11,30.00,17,3,17,0.71
2013-2-16,77.3,69.7,63.7,67.1,64.7,62.2,98,85,69,30.13,30.04,23,6,23,0.10
2013-2-17,74.6,68.4,63.1,68.7,64.0,61.0,95,86,76,30.16,30.05,21,4,25,0.15
2013-2-18,71.0,68.1,65.2,66.6,63.9,60.2,97,87,73,30.14,30.05,24,5,24,0.30
2013-2-19,77.8,70.2,63.3,67.6,64.2,58.7,92,82,67,30.13,30.02,17,5,18,0.01
2013-2-20,78.0,70.2,64.4,68.9,65.9,63.5,98,87,72,30.14,30.03,18,4,18,0.26
2013-2-21,77.5,68.4,64.4,72.5,66.7,63.5,98,94,79,30.14,30.02,14,2,15,3.62
2013-2-22,67.3,66.0,65.3,66.9,65.4,64.7,99,98,97,30.13,30.07,12,1,12,2.50
2013-2-23,68.7,65.1,63.0,68.1,64.7,62.7,99,99,95,30.16,30.04,16,7,16,2.49
2013-2-24,68.6,68.6,68.6,64.6,64.6,64.6,87,87,87,30.07,30.07,6,6,6,0.00
2013-2-25,69.0,68.6,68.6,64.6,64.6,64.6,87,87,87,30.07,30.05,9,4,9,3.62
2013-3-3,80.1,71.4,64.1,66.3,62.1,58.2,91,74,49,30.16,30.07,17,12,17,0.00
2013-3-4,78.0,70.6,63.7,66.1,62.3,57.5,87,75,59,30.18,30.06,17,12,17,0.00
2013-3-5,78.7,70.7,62.0,66.6,62.8,57.0,92,77,64,30.13,30.03,14,9,14,0.00
2013-3-6,77.3,69.4,63.4,68.2,64.9,62.2,96,86,68,30.14,30.03,15,8,15,0.08
2013-3-7,78.9,69.5,60.7,68.4,64.0,59.6,96,84,62,30.09,29.96,17,6,17,0.00
2013-3-8,79.2,70.9,63.4,67.6,65.1,61.6,96,83,63,30.03,29.87,19,8,19,0.01
2013-3-9,79.3,72.1,63.6,69.1,66.9,62.1,97,84,68,30.05,29.85,21,6,21,0.71
2013-3-10,81.8,72.5,64.6,70.1,67.1,62.8,95,84,62,30.00,29.85,23,4,23,0.04
2013-3-11,83.0,71.1,60.7,71.5,66.4,59.6,97,86,66,30.04,29.91,18,3,18,0.04
2013-3-12,76.2,69.9,66.0,70.1,67.6,65.0,98,93,78,30.06,29.93,6,1,7,0.04
2013-3-13,76.9,69.1,62.1,70.7,66.5,61.2,99,92,79,30.07,29.97,13,2,13,0.09
2013-3-14,78.5,69.7,60.6,70.5,66.3,59.6,99,90,73,30.07,29.94,16,3,16,3.04
2013-3-15,74.8,69.6,66.7,71.7,67.9,65.7,98,94,84,29.97,29.87,11,2,11,0.54
2013-3-16,76.8,67.4,63.8,70.6,65.5,62.1,99,94,80,30.01,29.87,14,2,16,0.05
2013-3-17,71.4,66.4,63.4,65.9,63.2,61.6,97,90,78,30.01,29.92,10,2,10,0.08
2013-3-18,77.8,69.0,63.5,68.4,63.7,60.8,94,84,64,30.02,29.92,9,2,14,0.00
2013-3-19,80.0,68.8,59.5,69.6,64.7,58.4,97,88,66,30.02,29.91,15,3,15,0.43
2013-3-20,80.5,70.4,60.2,72.0,65.9,59.3,99,86,69,30.07,29.95,15,2,15,0.01
2013-3-21,81.5,72.9,65.5,71.2,68.0,64.0,98,86,66,30.08,29.96,16,2,16,0.02
2013-3-22,80.8,71.5,63.5,71.1,66.5,62.3,98,85,62,30.05,29.91,17,2,17,0.01
2013-3-23,79.5,71.8,64.3,70.4,66.2,63.1,98,84,64,29.99,29.91,13,2,13,0.00
2013-3-24,76.8,70.9,64.0,70.6,67.4,62.5,98,89,73,30.01,29.91,11,2,12,0.05
2013-3-25,77.2,71.2,66.9,73.0,68.5,66.0,98,92,79,30.01,29.91,12,2,12,0.26
2013-3-26,81.3,73.4,65.9,71.7,67.9,64.7,98,84,62,30.03,29.93,14,3,14,0.03
2013-3-27,78.9,72.7,66.0,71.2,66.6,63.6,97,82,67,30.03,29.90,14,4,14,0.02
2013-3-28,81.0,70.9,63.6,70.6,65.6,62.1,96,84,64,30.04,29.93,17,3,17,0.06
2013-3-29,75.6,68.9,63.5,71.4,66.5,62.6,98,92,80,30.04,29.94,12,2,13,1.51
2013-3-30,71.9,68.0,65.4,69.9,67.1,64.8,99,97,91,30.04,29.93,13,2,13,0.69
2013-3-31,76.4,68.8,62.6,69.4,63.9,60.8,99,85,70,30.02,29.92,16,3,16,0.00
2013-4-1,76.7,68.4,60.1,64.7,61.6,58.3,95,80,60,30.00,29.90,9,2,9,0.00
2013-4-2,78.5,67.5,58.3,67.0,62.0,56.7,96,83,64,30.07,29.94,14,2,14,0.02
2013-4-3,76.9,67.7,62.3,67.7,63.8,60.1,97,88,70,30.08,29.98,10,2,10,0.15
2013-4-4,79.3,69.9,60.3,68.4,64.5,59.3,98,84,65,30.09,29.98,15,3,15,0.00
2013-4-5,79.2,70.1,63.3,72.5,67.7,61.8,98,92,78,30.13,30.00,10,2,10,0.19
2013-4-6,81.7,72.7,66.2,72.9,68.9,64.8,100,89,69,30.18,30.06,16,3,17,0.00
2013-4-7,82.5,72.9,64.0,71.2,67.7,62.9,99,85,56,30.19,30.05,16,2,16,0.01
2013-4-8,81.4,72.0,64.7,72.6,67.1,63.3,97,86,63,30.10,29.96,16,3,16,0.19
2013-4-9,80.8,71.5,63.6,71.5,66.9,62.7,98,86,66,30.08,29.96,16,3,17,0.03
2013-4-10,81.0,72.5,66.3,72.1,68.1,65.1,98,87,63,30.09,29.98,15,3,15,0.12
2013-4-11,80.8,71.8,63.9,72.0,67.4,63.3,99,87,69,30.07,29.94,16,3,16,0.01
2013-4-12,81.9,71.6,64.9,69.6,65.9,63.0,98,84,56,29.99,29.89,17,3,17,0.00
2013-4-13,81.5,71.5,63.4,71.5,67.0,62.5,98,87,64,29.98,29.84,17,3,17,0.05
2013-4-14,82.3,72.9,63.3,71.2,67.4,62.1,99,84,65,29.97,29.85,16,3,16,0.01
2013-4-15,81.7,72.7,62.9,71.9,67.6,61.8,99,85,68,30.05,29.92,17,2,17,0.00
2013-4-16,82.5,73.5,66.5,71.6,67.9,65.3,97,84,64,30.11,29.98,17,2,17,0.00
2013-4-17,80.5,72.5,67.5,73.4,68.4,66.3,98,87,69,30.15,30.04,15,3,15,0.57
2013-4-18,80.5,72.2,66.7,73.6,68.5,65.2,98,89,74,30.14,30.05,17,3,17,0.41
2013-4-19,77.3,70.2,65.6,71.8,67.7,64.3,98,92,80,30.11,30.01,16,3,17,0.47
2013-4-20,82.0,71.4,61.1,70.5,66.5,60.2,98,86,64,30.08,29.99,14,3,15,0.12
2013-4-21,80.8,74.1,69.8,70.6,68.7,67.6,96,84,66,30.04,29.93,15,2,15,0.01
2013-4-22,82.3,74.6,67.4,73.1,69.2,65.2,97,84,68,30.04,29.93,16,3,16,0.00
2013-4-23,82.2,73.8,65.2,71.2,67.7,63.6,96,82,64,30.06,29.97,17,2,17,0.00
2013-4-24,82.8,73.0,63.1,71.7,66.9,61.9,97,82,62,30.08,29.98,14,3,14,0.01
2013-4-25,83.2,72.9,62.6,71.4,66.7,60.9,97,82,66,30.07,29.98,12,2,13,0.00
2013-4-26,81.3,73.9,67.3,69.8,66.7,64.2,96,79,62,30.05,29.96,16,3,16,0.12
2013-4-27,79.4,71.7,63.7,71.0,67.0,62.1,96,86,65,30.08,29.96,14,2,14,0.23
2013-4-28,80.8,72.0,63.8,72.0,67.8,62.1,98,87,67,30.05,29.93,15,3,15,0.08
2013-4-29,81.5,73.7,66.8,71.1,68.5,65.9,99,85,66,30.00,29.90,15,2,17,0.14
2013-4-30,80.9,72.5,64.9,71.6,67.7,63.1,98,86,65,30.04,29.94,15,3,15,0.11
2013-5-1,82.2,72.3,63.0,71.1,66.7,61.3,96,83,63,30.08,29.98,15,4,16,0.01
2013-5-2,80.0,71.3,65.1,71.9,66.5,63.0,98,86,61,30.09,30.02,15,3,16,0.10
2013-5-3,82.0,71.2,63.3,70.2,65.4,62.4,97,83,57,30.07,29.96,14,3,14,0.11
2013-5-4,81.6,71.9,64.5,71.1,66.9,63.3,98,85,64,30.01,29.90,16,3,16,0.26
2013-5-5,81.6,73.0,66.2,70.3,66.9,63.6,96,82,63,29.96,29.84,15,2,15,0.00
2013-5-6,85.8,74.1,64.9,71.1,66.6,62.9,96,79,56,29.95,29.83,17,3,17,0.00
2013-5-7,85.7,73.8,63.8,73.8,68.8,62.2,97,85,64,29.98,29.86,11,2,11,0.00
2013-5-8,86.3,75.2,65.0,74.1,69.6,63.8,98,84,60,30.00,29.89,15,3,16,0.02
2013-5-9,81.1,73.0,70.2,76.1,71.6,69.0,98,95,81,30.06,29.95,9,1,9,1.33
2013-5-10,84.0,75.6,70.6,74.7,71.3,69.3,99,87,69,30.08,29.98,13,2,13,0.00
2013-5-11,84.6,76.3,69.8,73.8,70.9,69.0,98,84,63,30.07,29.97,15,2,15,0.35
2013-5-12,83.2,74.1,67.6,74.4,70.0,66.3,98,88,68,30.07,29.99,13,3,13,0.63
2013-5-13,82.8,75.1,67.2,73.1,69.3,66.3,98,83,65,30.06,29.99,13,3,14,0.15
2013-5-14,83.7,76.8,66.0,73.7,69.8,65.4,98,80,66,30.11,30.02,14,4,14,0.01
2013-5-15,82.0,72.6,67.6,73.5,69.1,66.2,96,89,66,30.14,30.04,16,2,17,0.16
2013-5-16,82.1,73.8,67.6,72.6,68.4,66.0,97,84,60,30.12,30.02,18,3,18,0.12
2013-5-17,81.0,72.9,67.0,72.8,68.4,65.8,97,86,68,30.07,29.96,15,3,15,0.36
2013-5-18,79.0,71.3,65.6,72.9,68.0,64.3,98,90,72,30.03,29.94,11,2,11,0.30
2013-5-19,77.7,71.2,66.7,71.8,68.6,65.7,98,92,78,29.99,29.88,16,2,16,0.29
2013-5-20,81.0,72.2,66.1,74.6,69.6,65.1,98,92,75,29.98,29.87,9,2,10,0.55
2013-5-21,82.6,71.9,63.0,74.0,68.3,61.8,98,89,67,30.00,29.91,11,2,11,0.44
2013-5-22,83.8,74.6,66.1,74.4,70.5,65.3,99,88,67,30.04,29.92,16,2,16,0.02
2013-5-23,82.7,75.1,67.7,74.2,70.2,66.8,99,85,70,30.05,29.96,15,3,15,0.02
2013-5-24,83.2,74.7,68.4,73.6,68.8,64.3,97,82,64,30.06,29.98,15,3,16,0.01
2013-5-25,81.2,72.6,67.1,74.0,69.9,65.8,98,91,71,30.07,29.98,19,3,20,0.57
2013-5-26,81.0,73.7,68.8,73.4,69.4,67.1,97,87,69,30.08,30.00,19,3,19,0.62
2013-5-27,81.2,73.8,67.2,73.8,69.6,66.3,98,87,73,30.12,30.02,14,3,14,1.46
2013-5-28,81.3,73.0,64.8,73.8,69.8,64.0,99,90,73,30.10,30.01,14,3,15,0.06
2013-5-29,81.5,74.3,69.7,73.8,70.6,68.5,99,89,73,30.08,29.99,14,3,15,0.22
2013-5-30,82.5,74.1,67.8,74.2,70.0,67.2,98,88,72,30.03,29.93,14,2,14,0.05
2013-5-31,82.0,74.5,68.6,74.4,70.6,67.7,99,88,72,30.05,29.95,16,4,16,0.33
2013-6-1,81.8,74.1,66.7,75.8,70.7,65.2,97,89,73,30.11,30.00,14,2,14,0.13
2013-6-2,80.3,74.0,68.6,74.1,70.1,66.1,98,88,75,30.10,30.02,17,3,17,0.17
2013-6-3,84.2,75.1,68.5,72.3,68.4,65.9,94,80,58,30.09,30.01,16,3,18,0.00
2013-6-4,81.8,74.7,69.9,72.0,68.1,64.2,93,80,69,30.05,29.96,15,3,16,0.10
2013-6-5,82.1,74.3,68.6,72.7,68.3,64.4,96,82,70,30.04,29.95,17,3,17,0.00
2013-6-6,80.5,72.7,67.4,72.1,67.5,64.3,97,84,67,30.05,29.93,16,3,16,0.34
2013-6-7,80.6,72.9,67.4,72.1,67.8,64.5,93,85,71,30.04,29.94,16,3,16,0.08
2013-6-8,82.3,73.1,65.9,73.7,68.8,64.7,98,87,71,30.07,29.96,13,2,13,0.11
2013-6-9,82.2,75.2,66.4,74.3,69.9,65.5,98,84,70,30.07,30.01,14,3,14,0.11
2013-6-10,82.7,73.7,67.3,72.5,68.5,65.2,95,84,70,30.06,29.98,14,3,15,0.00
2013-6-11,83.0,74.2,66.7,71.5,68.3,64.9,96,83,63,30.04,29.96,16,2,16,0.00
2013-6-12,82.5,74.1,68.0,74.4,69.3,65.7,95,85,63,30.09,30.00,14,3,16,0.10
2013-6-13,81.2,73.1,66.8,74.5,69.3,65.6,97,88,69,30.11,30.04,15,3,16,0.49
2013-6-14,80.8,72.4,67.3,72.7,68.7,66.2,99,89,71,30.10,29.99,17,3,17,0.81
2013-6-15,81.8,73.2,65.3,72.6,68.1,64.1,99,85,69,30.03,29.93,13,2,14,0.09
2013-6-16,82.3,74.2,66.0,73.1,69.1,64.5,97,85,67,30.02,29.93,15,4,16,0.09
2013-6-17,82.8,75.3,69.6,73.4,70.0,67.5,95,84,69,30.08,29.97,14,3,14,0.03
2013-6-18,81.5,74.5,68.3,75.3,69.8,67.4,98,86,68,30.07,29.99,15,3,15,0.22
2013-6-19,81.8,74.4,67.9,73.3,69.3,66.8,98,85,71,30.07,30.00,15,3,15,0.21
2013-6-20,82.3,76.2,67.6,74.0,70.4,66.4,97,83,71,30.06,29.96,14,3,14,0.06
2013-6-21,81.0,73.3,67.6,73.5,69.3,66.0,96,88,74,30.05,29.95,15,3,15,0.11
2013-6-22,82.8,73.6,68.0,73.4,69.3,66.5,97,87,69,30.09,30.00,12,2,13,0.29
2013-6-23,81.9,74.2,68.1,73.7,69.7,67.2,98,87,71,30.10,30.02,14,3,14,0.24
2013-6-24,81.3,75.2,67.8,73.5,69.0,66.0,97,82,68,30.09,30.01,13,3,15,0.08
2013-6-25,81.8,74.6,66.3,73.9,69.3,65.0,96,84,71,30.07,29.98,13,3,14,0.02
2013-6-26,83.8,74.0,67.8,73.2,69.7,66.0,97,87,68,30.06,29.97,16,2,16,0.12
2013-6-27,82.5,73.7,65.2,71.1,67.9,63.6,99,83,65,30.01,29.94,13,2,14,0.01
2013-6-28,82.5,72.3,63.6,71.8,67.2,62.1,97,85,64,30.00,29.91,14,2,14,0.14
2013-6-29,80.0,71.3,64.3,73.0,68.5,63.1,97,91,73,30.01,29.93,14,2,15,0.17
2013-6-30,82.7,74.3,66.4,74.3,69.3,65.5,98,85,69,30.03,29.95,16,3,16,0.06
2013-7-1,83.7,74.5,67.0,74.3,69.9,65.7,96,86,65,29.99,29.92,17,3,19,0.18
2013-7-2,80.5,73.1,68.5,74.9,70.3,67.6,99,91,77,29.98,29.88,12,2,12,0.61
2013-7-3,82.5,73.6,67.9,73.6,69.6,66.7,98,88,71,29.99,29.92,11,3,11,0.18
2013-7-4,82.8,74.5,67.2,74.4,70.1,65.7,97,87,72,30.02,29.94,14,2,15,0.08
2013-7-5,83.2,75.6,68.9,74.7,70.4,67.2,97,85,69,30.02,29.93,15,2,15,0.15
2013-7-6,83.8,75.5,67.6,74.8,70.7,66.7,98,86,67,30.01,29.93,11,2,13,0.14
2013-7-7,82.7,75.3,68.7,74.6,70.5,67.2,97,86,69,29.98,29.88,13,2,13,0.03
2013-7-8,85.8,77.7,66.5,75.6,70.4,65.3,98,79,59,30.05,29.93,16,3,18,0.00
2013-7-9,83.8,75.9,70.1,74.6,71.5,68.5,97,87,70,30.15,30.01,16,3,16,0.09
2013-7-10,83.5,76.3,70.7,74.1,70.0,67.7,96,81,67,30.14,30.06,16,3,17,0.03
2013-7-11,82.2,76.3,71.1,72.4,69.7,66.0,91,80,68,30.10,30.01,17,4,22,0.03
2013-7-12,83.3,74.8,67.6,73.9,69.5,66.4,97,84,67,30.05,29.97,13,3,14,0.12
2013-7-13,83.0,74.2,67.9,72.7,68.4,66.3,97,83,61,30.01,29.92,16,3,16,0.12
2013-7-14,82.8,73.5,65.0,72.5,68.1,64.1,98,84,67,30.01,29.91,14,3,15,0.14
2013-7-15,81.3,71.8,67.0,73.3,68.9,65.9,98,91,70,30.02,29.92,14,2,14,0.43
2013-7-16,82.0,73.6,67.5,74.4,69.8,66.6,98,88,71,30.01,29.92,15,3,15,0.15
2013-7-17,82.8,74.7,67.3,73.5,69.6,66.4,99,85,67,30.00,29.92,17,3,17,0.12
2013-7-18,83.7,74.3,67.2,75.2,70.5,66.3,98,89,71,30.04,29.94,13,3,13,0.61
2013-7-19,81.9,74.3,69.5,75.5,70.7,68.0,99,89,70,30.07,29.98,13,2,14,0.25
2013-7-20,83.7,74.6,67.4,74.6,69.4,66.5,98,85,68,30.06,29.97,13,3,14,0.30
2013-7-21,78.2,72.0,67.8,73.7,70.1,65.8,98,94,82,30.02,29.93,11,2,11,0.82
2013-7-22,83.2,75.3,70.9,75.4,72.4,70.3,100,91,75,30.02,29.94,15,2,15,0.36
2013-7-23,83.0,76.0,69.4,75.9,72.1,68.1,99,88,72,30.01,29.95,14,3,17,0.12
2013-7-24,82.7,75.3,68.9,73.8,70.1,67.7,98,85,68,29.99,29.89,15,2,15,0.00
2013-7-25,82.1,74.7,67.9,74.8,69.5,66.0,95,84,69,29.98,29.89,13,3,14,0.05
2013-7-26,82.3,74.8,68.2,74.9,70.1,66.8,98,86,69,30.04,29.93,13,3,14,0.30
2013-7-27,83.3,74.9,67.9,73.7,69.8,65.8,95,85,65,30.03,29.95,14,2,16,0.08
2013-7-28,84.3,75.7,66.2,75.4,71.1,65.0,97,86,66,29.99,29.87,18,3,18,0.06
2013-7-29,79.7,75.7,73.0,75.7,72.9,70.3,98,91,80,30.00,29.78,24,4,25,0.52
2013-7-30,84.6,77.5,73.3,76.2,74.2,72.3,98,90,71,30.11,29.97,12,2,12,0.32
2013-7-31,83.3,76.6,72.2,74.4,71.1,67.6,98,84,70,30.11,30.02,15,3,15,0.01
2013-8-1,84.1,76.5,69.7,73.2,69.6,66.6,91,80,64,30.09,29.98,15,3,16,0.00
2013-8-2,83.2,75.3,68.9,74.4,69.9,67.1,96,84,68,30.04,29.96,15,3,16,0.03
2013-8-3,83.0,75.1,68.4,74.8,70.3,66.7,97,85,71,30.02,29.94,13,3,13,0.06
2013-8-4,82.3,73.9,66.8,75.9,70.4,65.8,98,90,69,30.02,29.93,13,3,15,0.45
2013-8-5,83.0,74.2,68.0,75.5,70.7,67.1,99,90,69,30.01,29.93,11,2,13,0.19
2013-8-6,82.7,75.5,68.8,72.7,70.2,67.5,98,84,68,30.01,29.94,17,3,17,0.00
2013-8-7,84.1,75.3,68.4,74.4,69.9,66.4,97,84,67,30.05,29.95,13,2,14,0.09
2013-8-8,83.5,74.1,65.4,74.5,69.4,64.2,97,86,69,30.05,29.97,14,3,14,0.07
2013-8-9,82.5,75.4,66.6,76.8,71.8,63.6,97,89,70,30.04,29.91,14,2,14,0.26
2013-8-10,83.0,76.7,73.7,77.8,74.4,72.5,98,93,81,30.02,29.94,16,3,17,0.31
2013-8-11,84.1,76.9,72.2,75.5,72.6,70.2,98,87,69,30.04,29.97,14,3,16,0.03
2013-8-12,81.2,75.7,71.0,74.3,71.5,69.5,95,87,77,30.04,29.96,13,3,17,0.01
2013-8-13,82.4,75.1,69.7,76.0,70.9,68.1,97,87,74,30.02,29.94,13,3,14,0.19
2013-8-14,83.4,76.6,70.3,73.6,70.5,68.2,95,82,67,30.01,29.92,11,3,16,0.00
2013-8-15,83.5,75.6,69.2,73.7,70.6,67.3,98,85,66,30.03,29.94,15,3,15,0.23
2013-8-16,82.2,75.4,69.6,76.3,72.0,68.4,98,90,77,30.02,29.95,18,4,18,0.34
2013-8-17,84.5,77.6,68.6,73.0,69.5,65.9,91,77,62,30.03,29.94,13,4,15,0.00
2013-8-18,85.0,75.3,65.9,73.4,68.4,64.7,98,81,61,30.02,29.92,13,3,13,0.01
2013-8-19,84.0,74.9,65.4,74.4,69.5,62.9,96,84,64,30.00,29.92,16,3,16,0.07
2013-8-20,83.8,76.7,69.2,74.2,71.2,67.7,98,84,69,29.98,29.89,11,2,11,0.16
2013-8-21,84.3,76.2,67.6,74.6,71.0,66.1,97,85,67,29.97,29.88,14,2,14,0.01
2013-8-22,84.0,77.4,71.7,75.8,72.1,68.7,98,85,68,29.97,29.88,15,2,15,0.07
2013-8-23,84.6,78.1,69.7,74.4,71.2,67.3,96,80,68,29.99,29.90,14,3,16,0.00
2013-8-24,83.6,76.8,66.8,75.0,71.1,65.3,97,83,71,30.03,29.92,15,3,15,0.12
2013-8-25,84.0,76.2,69.3,75.4,71.0,67.7,96,84,70,30.07,29.98,15,3,16,0.05
2013-8-26,85.1,77.6,72.4,72.9,70.2,68.3,93,79,61,30.09,30.01,17,3,17,0.01
2013-8-27,86.2,75.6,69.1,73.4,68.9,66.1,92,81,55,30.07,29.95,12,2,13,0.00
2013-8-28,86.3,75.4,65.8,75.8,70.2,63.7,97,85,68,30.00,29.87,19,3,20,0.29
2013-8-29,84.8,75.6,68.7,75.4,70.6,67.7,98,85,68,29.95,29.86,16,3,16,0.34
2013-8-30,84.3,75.1,66.8,74.6,69.8,65.6,97,85,65,30.02,29.92,14,2,14,0.01
2013-8-31,84.5,76.1,68.0,73.7,70.1,66.8,98,83,61,30.03,29.93,14,2,15,0.02
2013-9-1,83.3,75.0,68.7,74.4,69.7,65.4,94,84,67,30.01,29.93,12,2,13,0.10
2013-9-2,83.3,77.1,66.3,74.0,70.7,64.8,97,81,68,30.01,29.92,15,3,16,0.04
2013-9-3,85.5,76.1,67.3,72.6,69.1,66.0,97,80,59,30.00,29.91,14,2,14,0.18
2013-9-4,82.5,72.0,61.8,72.2,67.1,60.3,97,85,65,30.01,29.92,15,2,15,0.00
2013-9-5,84.5,74.2,63.3,73.1,67.9,61.4,96,82,60,30.07,29.97,14,3,14,0.00
2013-9-6,85.5,76.0,66.1,74.5,70.2,64.6,96,83,63,30.05,29.96,14,3,15,0.05
2013-9-7,86.2,76.8,70.2,75.6,72.3,68.8,97,87,67,30.02,29.93,14,2,14,0.35
2013-9-8,83.9,76.8,70.2,75.3,71.7,68.7,97,85,65,30.06,29.97,16,3,16,0.01
2013-9-9,83.8,74.5,66.2,75.0,70.0,65.3,99,87,69,30.06,29.97,14,3,14,0.76
2013-9-10,84.5,75.2,65.2,76.3,70.3,64.0,97,86,71,30.05,29.95,14,2,15,0.09
2013-9-11,85.7,75.9,67.8,76.0,70.6,65.7,95,84,68,30.04,29.94,14,2,15,0.00
2013-9-12,86.5,76.2,68.6,77.0,71.6,66.5,95,86,69,29.98,29.88,14,2,15,0.01
2013-9-13,86.4,76.8,70.0,75.5,71.4,68.4,96,84,64,29.93,29.83,11,2,11,0.01
2013-9-14,86.3,78.4,68.3,76.4,71.9,66.8,97,81,65,29.93,29.82,14,3,14,0.09
2013-9-15,84.7,75.3,68.0,74.7,71.0,67.4,99,87,68,29.98,29.88,16,2,16,0.08
2013-9-16,86.0,76.3,67.0,75.3,71.0,65.8,98,85,65,30.02,29.95,13,3,13,0.28
2013-9-17,85.2,76.2,70.3,76.3,72.0,68.8,98,88,69,30.01,29.93,12,2,12,0.53
2013-9-18,85.7,75.3,65.4,74.4,69.7,63.9,98,84,59,29.99,29.92,13,2,13,0.00
2013-9-19,84.6,75.8,67.9,75.0,70.7,66.8,98,85,69,30.03,29.93,10,3,15,0.06
2013-9-20,85.5,75.6,67.8,74.2,70.2,66.6,97,84,62,30.03,29.95,13,2,13,0.06
2013-9-21,83.0,74.3,68.2,74.3,69.7,66.8,97,86,68,30.02,29.94,15,2,16,0.26
2013-9-22,84.8,73.9,67.8,74.7,70.0,66.7,97,88,66,30.02,29.92,14,2,14,0.30
2013-9-23,84.8,75.3,68.7,75.5,70.5,67.7,98,86,69,30.00,29.90,14,2,14,0.29
2013-9-24,83.8,74.9,68.1,74.4,70.0,67.2,97,86,64,30.01,29.91,10,2,10,0.75
2013-9-25,83.5,74.2,67.4,74.4,69.8,66.3,98,87,68,30.03,29.94,12,2,12,0.18
2013-9-26,83.0,73.5,67.4,73.4,68.8,65.6,97,86,64,30.02,29.91,13,3,13,0.47
2013-9-27,84.3,74.0,67.0,74.2,69.5,65.5,97,87,69,30.07,29.95,14,3,14,0.10
2013-9-28,84.3,74.3,66.9,75.9,70.4,65.7,97,88,70,30.08,29.97,12,2,12,0.26
2013-9-29,82.8,73.9,68.3,75.4,70.4,67.1,97,89,73,30.04,29.92,11,2,12,0.55
2013-9-30,82.5,73.9,68.2,74.9,70.8,67.3,99,91,73,30.03,29.93,13,2,13,0.11
2013-10-1,83.9,75.1,67.7,75.3,70.1,66.0,96,85,69,30.01,29.93,14,2,14,0.00
2013-10-2,81.7,73.9,67.6,74.4,70.2,66.7,99,89,74,29.99,29.90,12,2,12,0.28
2013-10-3,83.5,74.2,68.3,75.5,70.3,67.4,98,88,70,29.99,29.89,13,2,14,0.10
2013-10-4,84.0,74.0,68.1,74.4,69.9,66.8,98,88,69,30.00,29.91,12,2,12,0.24
2013-10-5,82.1,72.9,67.0,74.9,70.2,66.1,98,92,75,30.00,29.90,11,2,11,0.29
2013-10-6,84.3,73.9,67.2,74.5,70.2,66.3,98,89,64,30.00,29.91,11,2,11,0.29
2013-10-7,82.5,73.4,65.8,75.3,69.4,65.2,98,88,66,30.05,29.95,13,2,13,0.01
2013-10-8,81.0,72.4,67.0,75.3,70.1,65.8,98,93,75,30.06,29.97,18,2,18,0.40
2013-10-9,82.2,74.1,67.6,75.9,70.2,66.7,99,88,71,30.02,29.93,12,2,12,0.17
2013-10-10,83.3,75.2,67.8,75.0,71.2,66.6,98,88,71,29.99,29.90,12,2,12,0.10
2013-10-11,85.2,74.6,68.4,72.3,70.0,67.2,98,87,57,30.02,29.90,12,2,12,0.47
2013-10-12,84.2,75.8,69.2,75.4,71.8,68.2,97,88,73,30.00,29.91,13,2,13,0.01
2013-10-13,83.4,75.1,70.3,75.2,71.5,68.8,98,89,69,29.99,29.88,14,2,14,0.10
2013-10-14,82.8,75.3,67.3,75.2,71.2,66.5,98,88,73,29.95,29.85,11,2,11,0.21
2013-10-15,84.5,75.2,67.8,75.5,70.8,66.9,99,87,69,29.97,29.86,13,2,13,0.07
2013-10-16,85.0,74.9,67.8,75.9,70.8,66.0,97,87,68,29.97,29.87,12,2,12,0.03
2013-10-17,82.5,73.9,66.3,75.1,70.9,65.3,99,91,74,29.97,29.89,12,2,12,0.01
2013-10-18,86.6,75.5,66.8,75.3,71.2,65.9,99,87,65,29.94,29.81,13,2,13,0.08
2013-10-19,89.3,76.1,69.9,78.1,72.1,68.5,98,88,64,29.89,29.78,14,2,14,0.97
2013-10-20,86.3,75.9,69.2,76.9,72.9,68.3,98,91,68,29.92,29.82,15,2,16,0.09
2013-10-21,84.7,74.7,67.9,76.5,71.7,67.2,99,91,73,29.95,29.85,10,2,10,0.15
2013-10-22,84.3,75.2,69.0,75.4,70.9,66.8,99,87,69,29.97,29.88,9,2,14,0.09
2013-10-23,83.3,73.5,66.3,74.9,69.8,65.0,99,89,72,29.99,29.88,10,1,11,0.08
2013-10-24,85.5,74.4,67.9,74.6,70.2,67.0,98,87,68,29.97,29.88,12,2,12,0.00
2013-10-25,83.0,74.2,68.8,76.2,71.0,67.0,98,90,77,30.01,29.90,9,2,9,0.34
2013-10-26,85.3,75.0,69.3,77.1,72.7,68.7,100,93,72,30.03,29.92,15,2,15,1.07
2013-10-27,84.2,75.8,70.3,76.1,72.1,69.1,99,89,69,30.02,29.90,11,2,12,0.24
2013-10-28,84.0,75.7,68.7,77.7,71.1,67.3,100,86,73,30.03,29.91,12,2,12,0.65
2013-10-29,83.8,74.3,66.4,75.1,69.3,65.5,98,85,67,30.06,29.94,12,2,12,0.06
2013-10-30,80.5,73.0,66.2,75.1,71.0,65.0,98,93,80,30.08,29.97,12,2,13,1.26
2013-10-31,84.5,74.9,66.1,76.2,70.4,65.5,99,87,70,30.07,29.98,14,2,14,0.15
2013-11-1,82.1,72.8,67.4,76.2,70.5,66.5,98,93,75,30.06,29.95,14,2,14,0.66
2013-11-2,80.1,72.1,66.0,75.0,69.6,65.1,99,92,79,30.06,29.96,16,2,16,0.06
2013-11-3,80.3,72.9,67.8,72.5,69.0,65.7,96,88,73,30.06,29.93,13,2,13,0.09
2013-11-4,78.2,71.5,67.7,74.1,69.8,66.5,98,94,83,30.02,29.92,8,2,8,0.62
2013-11-5,79.6,71.1,66.8,74.1,69.6,66.2,99,95,78,30.00,29.90,12,2,13,0.26
2013-11-6,81.0,72.6,68.1,75.0,70.1,67.1,98,92,75,29.96,29.85,11,1,11,0.01
2013-11-7,81.3,72.8,66.0,75.5,70.5,64.8,98,93,79,29.98,29.88,10,2,10,0.19
2013-11-8,83.5,74.1,68.9,75.9,70.7,67.8,99,90,73,29.97,29.84,10,1,11,0.07
2013-11-9,82.5,72.0,66.5,74.7,69.0,63.8,96,91,72,29.91,29.79,14,2,15,0.20
2013-11-10,82.5,72.7,66.9,73.2,68.8,65.7,99,88,67,29.93,29.79,17,3,17,0.40
2013-11-11,73.0,69.3,66.5,69.7,66.5,63.5,97,91,83,29.95,29.86,18,4,20,0.75
2013-11-12,78.7,70.3,63.8,69.5,65.4,62.3,96,85,70,29.98,29.88,10,1,10,0.00
2013-11-13,81.5,72.4,67.0,72.2,68.2,63.9,96,87,68,29.99,29.90,9,2,9,0.23
2013-11-14,79.0,74.5,69.5,76.1,73.1,68.2,99,95,90,29.99,29.87,10,2,11,0.26
2013-11-15,81.7,73.8,66.5,76.1,70.8,65.4,100,91,75,30.05,29.95,12,2,12,0.01
2013-11-16,84.8,73.9,66.4,74.5,69.6,65.0,98,87,67,30.05,29.93,14,2,14,0.08
2013-11-17,83.9,73.6,66.7,74.7,69.4,65.5,98,87,60,30.00,29.87,12,2,12,0.01
2013-11-18,82.2,73.1,66.7,74.6,69.3,65.7,99,89,68,29.97,29.86,11,2,13,0.01
2013-11-19,76.7,70.7,64.9,73.1,68.8,64.0,100,94,85,29.98,29.88,9,1,9,0.07
2013-11-20,82.8,73.4,65.1,74.6,69.6,64.2,100,89,71,29.97,29.86,12,2,12,0.01
2013-11-21,79.0,72.8,67.5,74.2,70.7,66.6,98,93,83,29.99,29.90,9,1,9,0.00
2013-11-22,84.8,73.6,63.5,75.5,69.0,62.3,97,86,67,30.00,29.90,14,2,14,0.00
2013-11-23,78.4,70.5,63.9,71.7,67.1,61.9,96,89,74,29.98,29.88,14,2,15,0.17
2013-11-24,82.0,72.6,63.3,70.7,65.2,60.1,95,79,62,29.96,29.88,17,3,17,0.01
2013-11-25,80.3,71.0,64.7,71.7,66.8,63.4,97,87,70,30.06,29.93,13,2,13,0.04
2013-11-26,80.5,71.4,62.4,73.1,67.6,61.4,98,88,72,30.08,29.96,14,2,14,0.07
2013-11-27,83.8,70.8,63.3,71.5,66.9,62.0,98,88,62,30.07,29.93,10,2,11,0.01
2013-11-28,84.5,71.6,63.8,71.9,66.5,62.9,98,85,53,30.01,29.89,14,3,14,0.04
2013-11-29,78.8,71.3,65.8,73.1,68.9,64.6,99,92,77,29.99,29.89,21,3,21,0.25
2013-11-30,80.0,72.7,67.1,73.1,69.4,65.9,99,90,74,30.02,29.91,14,2,14,0.13
2013-12-1,81.2,73.0,69.3,72.6,69.7,67.0,98,90,70,30.01,29.90,15,2,16,0.32
2013-12-2,80.0,72.1,66.1,73.3,68.9,64.9,99,90,71,30.00,29.89,11,2,12,0.08
2013-12-3,79.1,70.4,66.1,72.5,67.5,64.6,98,91,68,29.98,29.86,13,2,13,0.07
2013-12-4,82.2,70.3,62.6,71.0,65.8,61.6,98,87,66,30.00,29.88,12,2,12,0.04
2013-12-5,81.3,70.9,65.8,74.0,67.9,64.0,99,91,73,30.00,29.89,13,2,13,0.16
2013-12-6,81.5,70.2,62.9,72.6,66.9,61.9,98,90,71,30.00,29.90,13,2,14,0.04
2013-12-7,80.3,71.9,64.4,73.6,69.1,63.6,98,91,75,29.99,29.88,12,2,12,0.01
2013-12-8,74.6,71.6,70.0,74.0,71.0,68.8,99,98,96,30.05,29.94,12,2,12,1.30
2013-12-9,81.6,74.4,69.0,76.3,71.9,67.8,100,92,79,30.07,29.97,8,2,11,0.03
2013-12-10,82.8,73.3,67.8,72.8,69.3,66.8,97,88,68,30.06,29.93,13,2,14,0.12
2013-12-11,80.3,70.2,64.0,72.9,65.9,62.4,99,87,64,30.06,29.94,14,2,14,0.04
2013-12-12,77.8,69.3,62.4,73.6,66.9,61.5,99,92,79,30.08,29.94,13,2,13,0.10
2013-12-13,77.3,70.0,64.7,72.2,67.0,63.8,99,91,71,30.08,29.97,12,2,13,0.34
2013-12-14,80.0,70.9,64.6,72.5,66.3,61.5,99,87,56,30.03,29.90,14,3,14,0.08
2013-12-15,77.8,69.5,60.2,72.4,66.4,59.1,98,90,73,29.96,29.87,10,2,10,0.05
2013-12-16,84.7,71.2,60.8,71.3,66.3,59.6,98,86,61,29.98,29.86,10,2,11,0.01
2013-12-17,82.6,71.7,61.2,72.9,66.4,60.1,98,84,69,30.01,29.90,12,2,13,0.01
2013-12-18,81.2,71.1,61.3,70.7,65.4,59.0,94,83,67,30.04,29.94,12,3,13,0.00
2013-12-19,82.4,68.5,63.2,73.2,66.0,61.1,99,92,66,30.07,29.97,18,2,22,2.77
2013-12-20,77.8,69.3,64.2,72.9,67.7,63.6,99,95,82,30.07,29.94,10,2,10,1.40
2013-12-21,81.3,71.7,64.9,72.7,68.3,64.0,99,90,71,30.00,29.90,10,2,11,0.58
2013-12-22,79.6,68.6,60.5,71.5,65.6,59.4,98,91,64,30.01,29.87,12,2,13,0.75
2013-12-23,81.7,71.1,64.3,75.1,68.2,63.6,99,91,72,30.03,29.93,13,2,13,0.49
2013-12-24,80.7,71.3,65.2,72.7,68.2,64.6,99,91,73,30.05,29.95,12,2,12,0.24
2013-12-25,80.5,71.3,63.4,74.2,68.6,62.5,98,91,77,30.03,29.92,13,2,13,0.22
2013-12-26,79.1,72.0,65.0,73.1,68.0,63.8,97,88,76,29.98,29.87,18,3,18,0.14
2013-12-27,78.1,71.0,65.3,73.5,69.0,64.2,99,93,82,29.95,29.82,16,3,16,1.65
2013-12-28,74.8,70.2,65.7,72.7,69.4,65.1,99,97,88,29.96,29.83,9,1,9,1.63
2013-12-29,80.8,70.9,65.6,74.8,69.6,65.1,100,96,81,29.97,29.84,11,1,11,0.65
2013-12-30,75.5,72.0,70.2,72.7,70.9,69.6,98,96,89,29.97,29.85,20,2,20,2.38
2013-12-31,81.0,72.2,66.6,74.9,69.8,66.0,99,93,77,29.99,29.87,13,2,13,0.49
2014-1-1,78.5,70.6,64.5,73.4,69.0,63.9,99,95,82,29.97,29.84,9,1,11,0.22
2014-1-2,80.8,73.1,66.9,72.4,69.0,66.0,99,88,73,29.90,29.74,17,4,20,0.01